Home   Weather   Cambridge   Past weeks
Flag for USA

Past Weather in Cambridge, Massachusetts, USA — Yesterday and Last 2 Weeks

Now
55 °F

Passing clouds.


Feels Like: 52 °F
Forecast: 59 / 40 °F
Wind: 10 mph from Northwest

Location: Logan International Airport

Current Time: Oct 18, 2019 at 8:05:59 pm

Latest Report: Oct 18, 2019 at 6:54 pm


Visibility: 10 mi

Pressure: 29.83 "Hg

Humidity: 49%

Dew Point: 36 °F

Location of CambridgeLocation

Past Weather in Cambridge — Graph

°F

Cambridge Temperature Yesterday

Maximum temperature yesterday: 64 °F (at 3:54 am)
Minimum temperature yesterday: 52 °F (at 7:54 am)
Average temperature yesterday: 57 °F

High & Low Weather Summary for the Past Weeks

 TemperatureHumidityPressure
High80 °F (Oct 7, 11:54 am)93% (Oct 17, 5:54 am)30.45 "Hg (Oct 17, 5:54 am)
Low43 °F (Oct 5, 5:54 am)33% (Oct 15, 1:54 pm)28.80 "Hg (Oct 17, 5:22 am)
Average57 °F69%30.02 "Hg
* Reported Oct 3 6:54 pm — Oct 18 6:54 pm, Cambridge. Weather by CustomWeather, © 2019

Note: Actual official high and low records may vary slightly from our data, if they occured in-between our weather recording intervals... More about our weather records

Advertising

Cambridge Weather History for the Previous 24 Hours

Scroll right to see more
 ConditionsComfort  
Time TempWeatherWind HumidityBarometerVisibility
6:54 pm
Fri, Oct 18
55 °FPassing clouds.10 mph49%29.83 "Hg10 mi
5:54 pm57 °FPassing clouds.13 mph46%29.80 "Hg10 mi
4:54 pm60 °FScattered clouds.18 mph41%29.77 "Hg10 mi
3:54 pm61 °FScattered clouds.15 mph41%29.74 "Hg10 mi
2:54 pm60 °FScattered clouds.22 mph41%29.72 "Hg10 mi
1:54 pm59 °FPartly sunny.18 mph44%29.71 "Hg10 mi
12:54 pm59 °FPartly sunny.17 mph46%29.71 "Hg10 mi
10:54 am56 °FPartly sunny.18 mph53%29.70 "Hg10 mi
9:54 am55 °FPartly sunny.12 mph57%29.68 "Hg10 mi
8:54 am54 °FPartly sunny.15 mph59%29.65 "Hg10 mi
7:54 am53 °FScattered clouds.12 mph61%29.62 "Hg10 mi
6:54 am51 °FPassing clouds.16 mph63%29.58 "Hg10 mi
5:54 am51 °FPassing clouds.12 mph61%29.54 "Hg10 mi
4:54 am51 °FPassing clouds.17 mph61%29.51 "Hg10 mi
3:54 am52 °FPassing clouds.18 mph59%29.49 "Hg10 mi
2:54 am52 °FPassing clouds.21 mph59%29.47 "Hg10 mi
1:54 am52 °FPassing clouds.17 mph59%29.45 "Hg10 mi
12:54 am52 °FPassing clouds.14 mph59%29.43 "Hg10 mi
11:54 pm
Thu, Oct 17
53 °FPartly cloudy.17 mph56%29.39 "Hg10 mi
10:54 pm54 °FPartly cloudy.17 mph55%29.36 "Hg10 mi
9:54 pm54 °FPassing clouds.17 mph55%29.32 "Hg10 mi
8:54 pm54 °FPassing clouds.18 mph53%29.28 "Hg10 mi
Weather by CustomWeather, © 2019

See weather overview